| time (UTC) | temp F | wind direction | speed MPH | gust MPH | rain 1hr in | rain 24hr in | rain mn in | humidity % | barometer mb |
| 20260503222150 | 53 | 90 | 0.0 | 0.0 | 0.00 | 0.00 | 0.00 | 71 | 1001.3 |
| 20260503221846 | 53 | 90 | 0.0 | 0.0 | 0.00 | 0.00 | 0.00 | 70 | 1001.0 |
| 20260503221548 | 53 | 90 | 0.0 | 0.0 | 0.00 | 0.00 | 0.00 | 70 | 1001.0 |
| 20260503221247 | 53 | 67 | 0.0 | 0.0 | 0.00 | 0.00 | 0.00 | 70 | 1001.0 |
| 20260503220948 | 53 | 112 | 0.0 | 0.0 | 0.00 | 0.00 | 0.00 | 69 | 1000.8 |
| 20260503220648 | 53 | 112 | 0.0 | 0.0 | 0.00 | 0.00 | 0.00 | 69 | 1000.8 |
| 20260503220348 | 53 | 112 | 0.0 | 0.0 | 0.00 | 0.00 | 0.00 | 69 | 1000.8 |
| 20260503220051 | 53 | 337 | 0.0 | 0.0 | 0.00 | 0.00 | 0.00 | 69 | 1000.8 |
| 20260503215747 | 53 | 90 | 0.0 | 0.0 | 0.00 | 0.00 | 0.00 | 69 | 1000.8 |
| 20260503215447 | 53 | 90 | 0.0 | 0.0 | 0.00 | 0.00 | 0.00 | 69 | 1000.8 |
| 20260503215148 | 54 | 90 | 0.0 | 0.0 | 0.00 | 0.00 | 0.00 | 68 | 1000.8 |
| 20260503214846 | 54 | 90 | 0.0 | 0.0 | 0.00 | 0.00 | 0.00 | 69 | 1000.8 |
| 20260503214547 | 53 | 90 | 0.0 | 0.0 | 0.00 | 0.00 | 0.00 | 69 | 1000.8 |
| 20260503214248 | 54 | 337 | 0.0 | 0.0 | 0.00 | 0.00 | 0.00 | 69 | 1000.8 |
| 20260503213950 | 53 | 337 | 0.0 | 0.0 | 0.00 | 0.00 | 0.00 | 69 | 1000.5 |
| 20260503213648 | 53 | 90 | 0.0 | 0.0 | 0.00 | 0.00 | 0.00 | 69 | 1000.5 |
| 20260503213347 | 53 | 67 | 0.0 | 0.0 | 0.00 | 0.00 | 0.00 | 69 | 1000.8 |
| 20260503213048 | 54 | 90 | 0.0 | 0.0 | 0.00 | 0.00 | 0.00 | 69 | 1000.5 |
| 20260503212747 | 54 | 337 | 0.0 | 0.0 | 0.00 | 0.00 | 0.00 | 69 | 1000.5 |
| 20260503212448 | 54 | 337 | 0.0 | 0.0 | 0.00 | 0.00 | 0.00 | 69 | 1000.5 |
| 20260503212148 | 53 | 90 | 0.0 | 0.0 | 0.00 | 0.00 | 0.00 | 69 | 1000.8 |
| 20260503211548 | 53 | 90 | 0.0 | 0.0 | 0.00 | 0.00 | 0.00 | 69 | 1000.5 |
| 20260503211247 | 53 | 337 | 0.0 | 0.0 | 0.00 | 0.00 | 0.00 | 68 | 1000.5 |
| 20260503210947 | 54 | 270 | 0.0 | 0.0 | 0.00 | 0.00 | 0.00 | 66 | 1000.5 |
| 20260503210648 | 55 | 270 | 0.0 | 0.0 | 0.00 | 0.00 | 0.00 | 66 | 1000.5 |
| 20260503210348 | 54 | 270 | 0.0 | 0.0 | 0.00 | 0.00 | 0.00 | 66 | 1000.5 |
| 20260503210047 | 54 | 292 | 0.0 | 0.0 | 0.00 | 0.00 | 0.00 | 65 | 1000.5 |
| 20260503205750 | 54 | 292 | 0.0 | 0.0 | 0.00 | 0.00 | 0.00 | 65 | 1000.3 |
| 20260503205448 | 54 | 45 | 0.0 | 0.0 | 0.00 | 0.00 | 0.00 | 65 | 1000.3 |
| 20260503205146 | 54 | 292 | 0.0 | 0.0 | 0.00 | 0.00 | 0.00 | 65 | 1000.3 |
| 20260503204847 | 54 | 135 | 0.0 | 0.0 | 0.00 | 0.00 | 0.00 | 65 | 1000.0 |
| 20260503204548 | 54 | 337 | 0.0 | 0.0 | 0.00 | 0.00 | 0.00 | 65 | 1000.3 |
| 20260503204248 | 54 | 90 | 0.0 | 0.0 | 0.00 | 0.00 | 0.00 | 65 | 1000.0 |
| 20260503203948 | 54 | 90 | 0.0 | 0.0 | 0.00 | 0.00 | 0.00 | 65 | 1000.0 |
| 20260503203347 | 54 | 90 | 0.0 | 0.0 | 0.00 | 0.00 | 0.00 | 65 | 999.8 |
| 20260503203047 | 54 | 90 | 0.0 | 0.0 | 0.00 | 0.00 | 0.00 | 64 | 999.8 |
| 20260503202748 | 54 | 90 | 0.0 | 0.0 | 0.00 | 0.00 | 0.00 | 64 | 999.8 |
| 20260503202447 | 54 | 90 | 0.0 | 0.0 | 0.00 | 0.00 | 0.00 | 64 | 999.8 |
| 20260503202148 | 54 | 90 | 0.0 | 0.0 | 0.00 | 0.00 | 0.00 | 64 | 999.8 |
| 20260503201847 | 54 | 90 | 0.0 | 0.0 | 0.00 | 0.00 | 0.00 | 64 | 999.8 |
| 20260503201247 | 54 | 90 | 0.0 | 0.0 | 0.00 | 0.00 | 0.00 | 62 | 999.8 |
| 20260503200948 | 54 | 90 | 0.0 | 0.0 | 0.00 | 0.00 | 0.00 | 62 | 999.8 |
| 20260503200647 | 54 | 90 | 0.0 | 0.0 | 0.00 | 0.00 | 0.00 | 62 | 1000.0 |
| 20260503200348 | 55 | 90 | 0.0 | 0.0 | 0.00 | 0.00 | 0.00 | 62 | 999.8 |
| 20260503200047 | 55 | 337 | 0.0 | 0.0 | 0.00 | 0.00 | 0.00 | 62 | 1000.0 |
| 20260503195746 | 55 | 90 | 0.0 | 0.0 | 0.00 | 0.00 | 0.00 | 62 | 999.8 |
| 20260503195450 | 55 | 90 | 0.0 | 0.0 | 0.00 | 0.00 | 0.00 | 61 | 1000.0 |
| 20260503195148 | 55 | 90 | 0.0 | 0.0 | 0.00 | 0.00 | 0.00 | 61 | 1000.0 |
| 20260503194847 | 56 | 90 | 0.0 | 0.0 | 0.00 | 0.00 | 0.00 | 61 | 1000.0 |
| 20260503194547 | 56 | 90 | 0.0 | 0.0 | 0.00 | 0.00 | 0.00 | 60 | 1000.0 |
| 20260503194247 | 56 | 90 | 0.0 | 0.0 | 0.00 | 0.00 | 0.00 | 61 | 999.8 |
| 20260503193947 | 57 | 90 | 0.0 | 0.0 | 0.00 | 0.00 | 0.00 | 61 | 999.8 |
| 20260503193647 | 57 | 90 | 0.0 | 0.0 | 0.00 | 0.00 | 0.00 | 61 | 999.8 |
| 20260503193350 | 57 | 90 | 0.0 | 0.0 | 0.00 | 0.00 | 0.00 | 61 | 1000.0 |
| 20260503193050 | 58 | 90 | 0.0 | 0.0 | 0.00 | 0.00 | 0.00 | 59 | 999.8 |
| 20260503192747 | 58 | 90 | 0.0 | 0.0 | 0.00 | 0.00 | 0.00 | 60 | 1000.0 |
| 20260503192447 | 58 | 90 | 0.0 | 0.0 | 0.00 | 0.00 | 0.00 | 60 | 1000.0 |
| 20260503192148 | 58 | 90 | 0.0 | 0.0 | 0.00 | 0.00 | 0.00 | 59 | 999.8 |
| 20260503191847 | 59 | 337 | 0.0 | 0.0 | 0.00 | 0.00 | 0.00 | 57 | 999.8 |
| 20260503191247 | 60 | 90 | 0.0 | 0.0 | 0.00 | 0.00 | 0.00 | 58 | 999.8 |
| 20260503190948 | 60 | 90 | 0.0 | 0.0 | 0.00 | 0.00 | 0.00 | 58 | 999.8 |
| 20260503190648 | 60 | 90 | 0.0 | 0.0 | 0.00 | 0.00 | 0.00 | 57 | 999.8 |
| 20260503190348 | 60 | 90 | 0.0 | 0.0 | 0.00 | 0.00 | 0.00 | 56 | 999.8 |
| 20260503190047 | 61 | 337 | 0.0 | 0.0 | 0.00 | 0.00 | 0.00 | 57 | 999.8 |
| 20260503185748 | 61 | 90 | 0.0 | 0.0 | 0.00 | 0.00 | 0.00 | 56 | 999.8 |
| 20260503184847 | 62 | 90 | 0.0 | 0.0 | 0.00 | 0.00 | 0.00 | 55 | 999.8 |
| 20260503184547 | 63 | 337 | 0.0 | 0.0 | 0.00 | 0.00 | 0.00 | 55 | 999.8 |
| 20260503184251 | 63 | 90 | 0.0 | 0.0 | 0.00 | 0.00 | 0.00 | 55 | 999.8 |
| 20260503183947 | 63 | 90 | 0.0 | 0.0 | 0.00 | 0.00 | 0.00 | 56 | 999.8 |
| 20260503183648 | 63 | 337 | 0.0 | 0.0 | 0.00 | 0.00 | 0.00 | 54 | 999.8 |
| 20260503183348 | 64 | 90 | 0.0 | 0.0 | 0.00 | 0.00 | 0.00 | 54 | 999.5 |
| 20260503183048 | 64 | 90 | 0.0 | 0.0 | 0.00 | 0.00 | 0.00 | 54 | 999.5 |
| 20260503182748 | 64 | 90 | 0.0 | 0.0 | 0.00 | 0.00 | 0.00 | 54 | 999.3 |
| 20260503182447 | 65 | 337 | 0.0 | 0.0 | 0.00 | 0.00 | 0.00 | 53 | 999.3 |
| 20260503181848 | 66 | 337 | 0.0 | 0.0 | 0.00 | 0.00 | 0.00 | 49 | 999.3 |
| 20260503181548 | 67 | 247 | 0.0 | 0.0 | 0.00 | 0.00 | 0.00 | 48 | 999.3 |
| 20260503181248 | 69 | 247 | 0.0 | 0.0 | 0.00 | 0.00 | 0.00 | 45 | 999.3 |
| 20260503180947 | 69 | 270 | 0.0 | 0.0 | 0.00 | 0.00 | 0.00 | 45 | 999.3 |
| 20260503180646 | 69 | 292 | 0.0 | 0.0 | 0.00 | 0.00 | 0.00 | 43 | 999.1 |
| 20260503180347 | 70 | 292 | 0.0 | 0.0 | 0.00 | 0.00 | 0.00 | 44 | 999.3 |
| 20260503180050 | 70 | 292 | 2.0 | 2.0 | 0.00 | 0.00 | 0.00 | 44 | 999.3 |
| 20260503175748 | 70 | 270 | 0.0 | 0.0 | 0.00 | 0.00 | 0.00 | 44 | 999.3 |
| 20260503175448 | 70 | 337 | 0.0 | 0.0 | 0.00 | 0.00 | 0.00 | 43 | 999.3 |
| 20260503175147 | 70 | 337 | 0.0 | 0.0 | 0.00 | 0.00 | 0.00 | 44 | 999.3 |
| 20260503174847 | 70 | 315 | 0.0 | 0.0 | 0.00 | 0.00 | 0.00 | 44 | 999.3 |
| 20260503174548 | 70 | 315 | 0.0 | 0.0 | 0.00 | 0.00 | 0.00 | 43 | 999.3 |
| 20260503174248 | 71 | 315 | 0.0 | 0.0 | 0.00 | 0.00 | 0.00 | 42 | 999.3 |
| 20260503173950 | 71 | 292 | 0.0 | 0.0 | 0.00 | 0.00 | 0.00 | 43 | 999.3 |
| 20260503173647 | 71 | 337 | 0.0 | 0.0 | 0.00 | 0.00 | 0.00 | 42 | 999.3 |
| 20260503173348 | 71 | 337 | 0.0 | 0.0 | 0.00 | 0.00 | 0.00 | 41 | 999.5 |
| 20260503173048 | 71 | 315 | 0.0 | 0.0 | 0.00 | 0.00 | 0.00 | 42 | 999.3 |
| 20260503172747 | 72 | 292 | 1.0 | 1.0 | 0.00 | 0.00 | 0.00 | 41 | 999.5 |
| 20260503172448 | 72 | 270 | 7.0 | 7.0 | 0.00 | 0.00 | 0.00 | 42 | 999.3 |
| 20260503171847 | 72 | 292 | 3.0 | 3.0 | 0.00 | 0.00 | 0.00 | 40 | 999.3 |
| 20260503171547 | 72 | 292 | 2.0 | 2.0 | 0.00 | 0.00 | 0.00 | 40 | 999.3 |
| 20260503171247 | 72 | 270 | 4.0 | 4.0 | 0.00 | 0.00 | 0.00 | 40 | 999.3 |
| 20260503170947 | 73 | 315 | 4.0 | 4.0 | 0.00 | 0.00 | 0.00 | 40 | 999.3 |
| 20260503170648 | 73 | 270 | 4.0 | 4.0 | 0.00 | 0.00 | 0.00 | 40 | 999.3 |
| 20260503170347 | 73 | 292 | 4.0 | 4.0 | 0.00 | 0.00 | 0.00 | 39 | 999.3 |
| 20260503150948 | 79 | 225 | 5.0 | 5.0 | 0.00 | 0.00 | 0.00 | 34 | 999.5 |
| 20260503150648 | 81 | 315 | 3.0 | 3.0 | 0.00 | 0.00 | 0.00 | 34 | 999.5 |
| 20260503150347 | 80 | 292 | 7.0 | 7.0 | 0.00 | 0.00 | 0.00 | 33 | 999.8 |
| 20260503131248 | 78 | 202 | 3.0 | 3.0 | 0.00 | 0.00 | 0.00 | 35 | 1000.5 |
| 20260503130948 | 78 | 157 | 1.0 | 1.0 | 0.00 | 0.00 | 0.00 | 33 | 1000.5 |
| 20260503130647 | 78 | 180 | 3.0 | 3.0 | 0.00 | 0.00 | 0.00 | 34 | 1000.8 |
| 20260503130347 | 78 | 337 | 5.0 | 5.0 | 0.00 | 0.00 | 0.00 | 34 | 1000.8 |
| 20260503110648 | 76 | 270 | 2.0 | 2.0 | 0.00 | 0.00 | 0.00 | 40 | 1001.8 |
| 20260503110347 | 75 | 270 | 1.0 | 1.0 | 0.00 | 0.00 | 0.00 | 39 | 1001.8 |
| 20260503090350 | 70 | 225 | 2.0 | 2.0 | 0.00 | 0.00 | 0.00 | 47 | 1003.0 |
| 20260503081547 | 69 | 180 | 0.0 | 0.0 | 0.00 | 0.00 | 0.00 | 45 | 1002.8 |
| 20260503081248 | 68 | 112 | 0.0 | 0.0 | 0.00 | 0.00 | 0.00 | 45 | 1002.8 |
| 20260503080648 | 68 | 337 | 3.0 | 3.0 | 0.00 | 0.00 | 0.00 | 49 | 1002.8 |
| 20260503080347 | 68 | 180 | 0.0 | 0.0 | 0.00 | 0.00 | 0.00 | 45 | 1002.8 |
| 20260503072447 | 66 | 135 | 0.0 | 0.0 | 0.00 | 0.00 | 0.00 | 49 | 1003.0 |
| 20260503072147 | 67 | 135 | 0.0 | 0.0 | 0.00 | 0.00 | 0.00 | 51 | 1003.0 |
| 20260503071847 | 67 | 112 | 0.0 | 0.0 | 0.00 | 0.00 | 0.00 | 50 | 1003.0 |
| 20260503071547 | 67 | 337 | 0.0 | 0.0 | 0.00 | 0.00 | 0.00 | 49 | 1003.3 |
| 20260503071247 | 67 | 90 | 0.0 | 0.0 | 0.00 | 0.00 | 0.00 | 51 | 1003.0 |
| 20260503070950 | 66 | 337 | 0.0 | 0.0 | 0.00 | 0.00 | 0.00 | 52 | 1003.3 |
| 20260503070647 | 66 | 90 | 0.0 | 0.0 | 0.00 | 0.00 | 0.00 | 51 | 1003.3 |
| 20260503070348 | 66 | 90 | 0.0 | 0.0 | 0.00 | 0.00 | 0.00 | 52 | 1003.3 |
| 20260503054847 | 54 | 90 | 0.0 | 0.0 | 0.00 | 0.00 | 0.00 | 75 | 1003.3 |
| 20260503054547 | 54 | 337 | 0.0 | 0.0 | 0.00 | 0.00 | 0.00 | 75 | 1003.0 |
| 20260503054247 | 53 | 90 | 0.0 | 0.0 | 0.00 | 0.00 | 0.00 | 76 | 1003.0 |
| 20260503053948 | 52 | 90 | 0.0 | 0.0 | 0.00 | 0.00 | 0.00 | 77 | 1003.0 |
| 20260503053348 | 50 | 90 | 0.0 | 0.0 | 0.00 | 0.00 | 0.00 | 77 | 1003.3 |
| 20260503053046 | 50 | 90 | 0.0 | 0.0 | 0.00 | 0.00 | 0.00 | 78 | 1003.3 |
| 20260503052747 | 50 | 90 | 0.0 | 0.0 | 0.00 | 0.00 | 0.00 | 78 | 1003.3 |
| 20260503052450 | 50 | 90 | 0.0 | 0.0 | 0.00 | 0.00 | 0.00 | 77 | 1003.0 |
| 20260503052147 | 49 | 90 | 0.0 | 0.0 | 0.00 | 0.00 | 0.00 | 77 | 1003.0 |
| 20260503051848 | 49 | 90 | 0.0 | 0.0 | 0.00 | 0.00 | 0.00 | 78 | 1003.0 |
| 20260503051248 | 48 | 90 | 0.0 | 0.0 | 0.00 | 0.00 | 0.00 | 77 | 1003.0 |
| 20260503050948 | 48 | 90 | 0.0 | 0.0 | 0.00 | 0.00 | 0.00 | 77 | 1003.0 |
| 20260503050647 | 48 | 337 | 0.0 | 0.0 | 0.00 | 0.00 | 0.00 | 78 | 1003.0 |
| 20260503050348 | 47 | 90 | 0.0 | 0.0 | 0.00 | 0.00 | 0.00 | 77 | 1003.0 |
| 20260503050048 | 47 | 90 | 0.0 | 0.0 | 0.00 | 0.00 | 0.00 | 78 | 1003.0 |
| 20260503045747 | 46 | 90 | 0.0 | 0.0 | 0.00 | 0.00 | 0.00 | 78 | 1003.0 |
| 20260503045450 | 46 | 90 | 0.0 | 0.0 | 0.00 | 0.00 | 0.00 | 79 | 1003.0 |
| 20260503045147 | 46 | 90 | 0.0 | 0.0 | 0.00 | 0.00 | 0.00 | 79 | 1003.0 |
| 20260503044847 | 45 | 90 | 0.0 | 0.0 | 0.00 | 0.00 | 0.00 | 80 | 1003.0 |
| 20260503044548 | 45 | 90 | 0.0 | 0.0 | 0.00 | 0.00 | 0.00 | 79 | 1003.0 |
| 20260503044247 | 45 | 90 | 0.0 | 0.0 | 0.00 | 0.00 | 0.00 | 80 | 1003.0 |
| 20260503043948 | 44 | 90 | 0.0 | 0.0 | 0.00 | 0.00 | 0.00 | 80 | 1003.0 |
| 20260503043647 | 44 | 90 | 0.0 | 0.0 | 0.00 | 0.00 | 0.00 | 79 | 1003.0 |
| 20260503043350 | 43 | 90 | 0.0 | 0.0 | 0.00 | 0.00 | 0.00 | 79 | 1003.0 |
| 20260503043047 | 43 | 90 | 0.0 | 0.0 | 0.00 | 0.00 | 0.00 | 79 | 1003.0 |
| 20260503042747 | 42 | 90 | 0.0 | 0.0 | 0.00 | 0.00 | 0.00 | 79 | 1003.3 |
| 20260503042448 | 41 | 90 | 0.0 | 0.0 | 0.00 | 0.00 | 0.00 | 79 | 1003.0 |
| 20260503042147 | 41 | 90 | 0.0 | 0.0 | 0.00 | 0.00 | 0.00 | 78 | 1003.3 |
| 20260503041847 | 40 | 90 | 0.0 | 0.0 | 0.00 | 0.00 | 0.00 | 78 | 1003.0 |
| 20260503041546 | 40 | 90 | 0.0 | 0.0 | 0.00 | 0.00 | 0.00 | 77 | 1003.3 |
| 20260503041250 | 40 | 90 | 0.0 | 0.0 | 0.00 | 0.00 | 0.00 | 77 | 1003.0 |
| 20260503040947 | 40 | 90 | 0.0 | 0.0 | 0.00 | 0.00 | 0.00 | 77 | 1003.3 |
| 20260503040648 | 40 | 90 | 0.0 | 0.0 | 0.00 | 0.00 | 0.00 | 77 | 1003.0 |
| 20260503040347 | 40 | 90 | 0.0 | 0.0 | 0.00 | 0.00 | 0.00 | 77 | 1003.3 |
| 20260503040048 | 39 | 337 | 0.0 | 0.0 | 0.00 | 0.00 | 0.00 | 77 | 1003.0 |
| 20260503035748 | 39 | 90 | 0.0 | 0.0 | 0.00 | 0.00 | 0.00 | 77 | 1003.3 |
| 20260503035450 | 39 | 90 | 0.0 | 0.0 | 0.00 | 0.00 | 0.00 | 78 | 1003.3 |
| 20260503035147 | 39 | 90 | 0.0 | 0.0 | 0.00 | 0.00 | 0.00 | 77 | 1003.3 |
| 20260503034847 | 39 | 90 | 0.0 | 0.0 | 0.00 | 0.00 | 0.00 | 76 | 1003.3 |
| 20260503034247 | 39 | 90 | 0.0 | 0.0 | 0.00 | 0.00 | 0.00 | 76 | 1003.3 |
| 20260503033947 | 39 | 337 | 0.0 | 0.0 | 0.00 | 0.00 | 0.00 | 76 | 1003.3 |
| 20260503033648 | 39 | 337 | 0.0 | 0.0 | 0.00 | 0.00 | 0.00 | 76 | 1003.3 |
| 20260503033350 | 39 | 90 | 0.0 | 0.0 | 0.00 | 0.00 | 0.00 | 76 | 1003.3 |
| 20260503033048 | 39 | 90 | 0.0 | 0.0 | 0.00 | 0.00 | 0.00 | 76 | 1003.3 |
| 20260503032447 | 39 | 90 | 0.0 | 0.0 | 0.00 | 0.00 | 0.00 | 76 | 1003.3 |
| 20260503032147 | 40 | 90 | 0.0 | 0.0 | 0.00 | 0.00 | 0.00 | 77 | 1003.3 |
| 20260503031848 | 40 | 90 | 0.0 | 0.0 | 0.00 | 0.00 | 0.00 | 76 | 1003.3 |
| 20260503031548 | 40 | 90 | 0.0 | 0.0 | 0.00 | 0.00 | 0.00 | 76 | 1003.3 |
| 20260503031248 | 40 | 90 | 0.0 | 0.0 | 0.00 | 0.00 | 0.00 | 75 | 1003.3 |
| 20260503030947 | 40 | 90 | 0.0 | 0.0 | 0.00 | 0.00 | 0.00 | 75 | 1003.3 |
| 20260503030650 | 40 | 90 | 0.0 | 0.0 | 0.00 | 0.00 | 0.00 | 75 | 1003.3 |
| 20260503030350 | 40 | 90 | 0.0 | 0.0 | 0.00 | 0.00 | 0.00 | 75 | 1003.3 |
| 20260503030047 | 40 | 90 | 0.0 | 0.0 | 0.00 | 0.00 | 0.00 | 75 | 1003.3 |
| 20260503025748 | 40 | 90 | 0.0 | 0.0 | 0.00 | 0.00 | 0.00 | 75 | 1003.3 |
| 20260503025448 | 40 | 90 | 0.0 | 0.0 | 0.00 | 0.00 | 0.00 | 75 | 1003.3 |
| 20260503024847 | 40 | 90 | 0.0 | 0.0 | 0.00 | 0.00 | 0.00 | 75 | 1003.3 |
| 20260503024546 | 40 | 90 | 0.0 | 0.0 | 0.00 | 0.00 | 0.00 | 75 | 1003.3 |
| 20260503023947 | 40 | 90 | 0.0 | 0.0 | 0.00 | 0.00 | 0.00 | 75 | 1003.3 |
| 20260503023646 | 40 | 90 | 0.0 | 0.0 | 0.00 | 0.00 | 0.00 | 75 | 1003.3 |
| 20260503023348 | 40 | 337 | 0.0 | 0.0 | 0.00 | 0.00 | 0.00 | 75 | 1003.3 |
| 20260503023050 | 40 | 90 | 0.0 | 0.0 | 0.00 | 0.00 | 0.00 | 74 | 1003.3 |
| 20260503022748 | 41 | 337 | 0.0 | 0.0 | 0.00 | 0.00 | 0.00 | 74 | 1003.3 |
| 20260503022447 | 40 | 90 | 0.0 | 0.0 | 0.00 | 0.00 | 0.00 | 74 | 1003.3 |
| 20260503021847 | 41 | 90 | 0.0 | 0.0 | 0.00 | 0.00 | 0.00 | 74 | 1003.3 |
| 20260503021547 | 41 | 90 | 0.0 | 0.0 | 0.00 | 0.00 | 0.00 | 75 | 1003.3 |
| 20260503021248 | 41 | 90 | 0.0 | 0.0 | 0.00 | 0.00 | 0.00 | 74 | 1003.3 |
| 20260503020948 | 41 | 90 | 0.0 | 0.0 | 0.00 | 0.00 | 0.00 | 74 | 1003.5 |
| 20260503020648 | 41 | 90 | 0.0 | 0.0 | 0.00 | 0.00 | 0.00 | 75 | 1003.3 |
| 20260503020350 | 41 | 90 | 0.0 | 0.0 | 0.00 | 0.00 | 0.00 | 74 | 1003.3 |
| 20260503020047 | 41 | 90 | 0.0 | 0.0 | 0.00 | 0.00 | 0.00 | 74 | 1003.3 |
| 20260503015748 | 41 | 90 | 0.0 | 0.0 | 0.00 | 0.00 | 0.00 | 74 | 1003.3 |
| 20260503015447 | 41 | 90 | 0.0 | 0.0 | 0.00 | 0.00 | 0.00 | 74 | 1003.3 |
| 20260503015146 | 41 | 90 | 0.0 | 0.0 | 0.00 | 0.00 | 0.00 | 74 | 1003.3 |
| 20260503014847 | 41 | 90 | 0.0 | 0.0 | 0.00 | 0.00 | 0.00 | 74 | 1003.3 |
| 20260503014548 | 41 | 90 | 0.0 | 0.0 | 0.00 | 0.00 | 0.00 | 74 | 1003.5 |
| 20260503013950 | 41 | 90 | 0.0 | 0.0 | 0.00 | 0.00 | 0.00 | 74 | 1003.5 |
| 20260503013647 | 41 | 90 | 0.0 | 0.0 | 0.00 | 0.00 | 0.00 | 74 | 1003.3 |
| 20260503013350 | 41 | 90 | 0.0 | 0.0 | 0.00 | 0.00 | 0.00 | 74 | 1003.5 |
| 20260503013047 | 41 | 90 | 0.0 | 0.0 | 0.00 | 0.00 | 0.00 | 74 | 1003.3 |
| 20260503012447 | 41 | 90 | 0.0 | 0.0 | 0.00 | 0.00 | 0.00 | 73 | 1003.5 |
| 20260503012146 | 41 | 90 | 0.0 | 0.0 | 0.00 | 0.00 | 0.00 | 73 | 1003.5 |
| 20260503011848 | 41 | 90 | 0.0 | 0.0 | 0.00 | 0.00 | 0.00 | 73 | 1003.5 |
| 20260503011548 | 41 | 90 | 0.0 | 0.0 | 0.00 | 0.00 | 0.00 | 73 | 1003.5 |
| 20260503010947 | 41 | 90 | 0.0 | 0.0 | 0.00 | 0.00 | 0.00 | 73 | 1003.5 |
| 20260503010346 | 41 | 90 | 0.0 | 0.0 | 0.00 | 0.00 | 0.00 | 73 | 1003.5 |
| 20260503010050 | 41 | 90 | 0.0 | 0.0 | 0.00 | 0.00 | 0.00 | 73 | 1003.8 |
| 20260503005750 | 41 | 90 | 0.0 | 0.0 | 0.00 | 0.00 | 0.00 | 72 | 1003.8 |
| 20260503005447 | 41 | 90 | 0.0 | 0.0 | 0.00 | 0.00 | 0.00 | 72 | 1003.8 |
| 20260503004847 | 41 | 90 | 0.0 | 0.0 | 0.00 | 0.00 | 0.00 | 71 | 1003.8 |
| 20260503004548 | 41 | 90 | 0.0 | 0.0 | 0.00 | 0.00 | 0.00 | 71 | 1003.8 |
| 20260503004248 | 42 | 90 | 0.0 | 0.0 | 0.00 | 0.00 | 0.00 | 71 | 1003.8 |
| 20260503003947 | 42 | 90 | 0.0 | 0.0 | 0.00 | 0.00 | 0.00 | 71 | 1003.8 |
| 20260503003648 | 42 | 90 | 0.0 | 0.0 | 0.00 | 0.00 | 0.00 | 72 | 1003.8 |
| 20260503003347 | 42 | 90 | 0.0 | 0.0 | 0.00 | 0.00 | 0.00 | 72 | 1003.8 |
| 20260503002747 | 41 | 90 | 0.0 | 0.0 | 0.00 | 0.00 | 0.00 | 72 | 1003.8 |
| 20260503002448 | 41 | 90 | 0.0 | 0.0 | 0.00 | 0.00 | 0.00 | 72 | 1003.8 |
| 20260503002147 | 41 | 337 | 0.0 | 0.0 | 0.00 | 0.00 | 0.00 | 71 | 1003.8 |
| 20260503001847 | 41 | 90 | 0.0 | 0.0 | 0.00 | 0.00 | 0.00 | 72 | 1003.8 |
| 20260503001548 | 42 | 90 | 0.0 | 0.0 | 0.00 | 0.00 | 0.00 | 71 | 1003.8 |
| 20260503001250 | 42 | 90 | 0.0 | 0.0 | 0.00 | 0.00 | 0.00 | 71 | 1003.8 |
| 20260503000947 | 41 | 90 | 0.0 | 0.0 | 0.00 | 0.00 | 0.00 | 70 | 1003.8 |
| 20260503000348 | 42 | 90 | 0.0 | 0.0 | 0.00 | 0.00 | 0.00 | 71 | 1003.8 |
| 20260503000048 | 42 | 337 | 0.0 | 0.0 | 0.00 | 0.00 | 0.00 | 70 | 1003.8 |
| 20260502235748 | 42 | 90 | 0.0 | 0.0 | 0.00 | 0.00 | 0.00 | 70 | 1003.8 |
| 20260502235446 | 42 | 90 | 0.0 | 0.0 | 0.00 | 0.00 | 0.00 | 69 | 1003.8 |
| 20260502234848 | 42 | 90 | 0.0 | 0.0 | 0.00 | 0.00 | 0.00 | 70 | 1004.0 |
| 20260502234548 | 42 | 337 | 0.0 | 0.0 | 0.00 | 0.00 | 0.00 | 69 | 1003.8 |
| 20260502234247 | 42 | 90 | 0.0 | 0.0 | 0.00 | 0.00 | 0.00 | 69 | 1003.8 |
| 20260502233947 | 42 | 90 | 0.0 | 0.0 | 0.00 | 0.00 | 0.00 | 69 | 1003.8 |
| 20260502233647 | 42 | 90 | 0.0 | 0.0 | 0.00 | 0.00 | 0.00 | 69 | 1004.0 |
| 20260502233348 | 42 | 90 | 0.0 | 0.0 | 0.00 | 0.00 | 0.00 | 70 | 1004.0 |
| 20260502232748 | 43 | 90 | 0.0 | 0.0 | 0.00 | 0.00 | 0.00 | 69 | 1004.0 |
| 20260502232448 | 43 | 90 | 0.0 | 0.0 | 0.00 | 0.00 | 0.00 | 69 | 1004.0 |
| 20260502232148 | 43 | 90 | 0.0 | 0.0 | 0.00 | 0.00 | 0.00 | 69 | 1004.0 |
| 20260502231848 | 43 | 90 | 0.0 | 0.0 | 0.00 | 0.00 | 0.00 | 69 | 1004.2 |
| 20260502231547 | 43 | 90 | 0.0 | 0.0 | 0.00 | 0.00 | 0.00 | 69 | 1004.0 |
| 20260502231248 | 43 | 90 | 0.0 | 0.0 | 0.00 | 0.00 | 0.00 | 69 | 1004.0 |
| 20260502230646 | 43 | 90 | 0.0 | 0.0 | 0.00 | 0.00 | 0.00 | 69 | 1004.0 |
| 20260502230348 | 43 | 90 | 0.0 | 0.0 | 0.00 | 0.00 | 0.00 | 69 | 1004.0 |
| 20260502230048 | 43 | 90 | 0.0 | 0.0 | 0.00 | 0.00 | 0.00 | 69 | 1004.2 |
| 20260502225748 | 44 | 337 | 0.0 | 0.0 | 0.00 | 0.00 | 0.00 | 68 | 1004.2 |
| 20260502225148 | 44 | 90 | 0.0 | 0.0 | 0.00 | 0.00 | 0.00 | 68 | 1004.2 |
| 20260502224847 | 44 | 90 | 0.0 | 0.0 | 0.00 | 0.00 | 0.00 | 68 | 1004.2 |
| 20260502224548 | 44 | 90 | 0.0 | 0.0 | 0.00 | 0.00 | 0.00 | 68 | 1004.2 |
| 20260502224248 | 44 | 90 | 0.0 | 0.0 | 0.00 | 0.00 | 0.00 | 67 | 1004.2 |
| 20260502223948 | 44 | 90 | 0.0 | 0.0 | 0.00 | 0.00 | 0.00 | 67 | 1004.2 |
| 20260502223348 | 44 | 90 | 0.0 | 0.0 | 0.00 | 0.00 | 0.00 | 67 | 1004.2 |
| 20260502223047 | 44 | 90 | 0.0 | 0.0 | 0.00 | 0.00 | 0.00 | 67 | 1004.2 |
| 20260502222748 | 44 | 90 | 0.0 | 0.0 | 0.00 | 0.00 | 0.00 | 67 | 1004.2 |
| 20260502222448 | 44 | 90 | 0.0 | 0.0 | 0.00 | 0.00 | 0.00 | 67 | 1004.2 |